This is the latest recevied weather packets stored in our database for station/object 2E1HJE-10. If no packets are shown the sender has not sent any weather packets the latest 10 day(s).
| Time | Temp. | Humidity | Pressure | Rain* | Wind** | Luminosity | Snow |
|---|---|---|---|---|---|---|---|
| 1788545307 | 18.89° C | 53% | 1016.1 hPa | 0 mm | - | - | - |
| 1788544707 | 18.89° C | 49% | 1015.5 hPa | 0 mm | - | - | - |
| 1788541707 | 20° C | 44% | 1015.4 hPa | 0 mm | - | - | - |
| 1788541107 | 20° C | 47% | 1014.7 hPa | 0 mm | - | - | - |
| 1788540507 | 20° C | 47% | 1014.7 hPa | 0 mm | - | - | - |
| 1788535107 | 20.56° C | 48% | 1014.5 hPa | 0 mm | - | - | - |
| 1788534507 | 21.11° C | 48% | 1014.5 hPa | 0 mm | - | - | - |
| 1788533307 | 21.67° C | 42% | 1013.9 hPa | 0 mm | - | - | - |
| 1788532107 | 22.78° C | 42% | 1013.9 hPa | 0 mm | - | - | - |
| 1788531506 | 22.78° C | 46% | 1013.7 hPa | 0 mm | - | - | - |
| 1788530907 | 22.78° C | 46% | 1013.7 hPa | 0 mm | - | - | - |
| 1788530308 | 23.33° C | 48% | 1013.2 hPa | 0 mm | - | - | - |
| 1788529707 | 23.33° C | 48% | 1013.2 hPa | 0 mm | - | - | - |
| 1788529106 | 23.33° C | 48% | 1013.2 hPa | 0 mm | - | - | - |
| 1788528507 | 22.78° C | 49% | 1013.4 hPa | 0 mm | - | - | - |
| 1788527906 | 22.78° C | 49% | 1013.4 hPa | 0 mm | - | - | - |
| 1788527307 | 22.78° C | 49% | 1013.4 hPa | 0 mm | - | - | - |
| 1788526707 | 22.22° C | 64% | 1012.9 hPa | 0 mm | - | - | - |
| 1788526107 | 22.22° C | 64% | 1012.9 hPa | 0 mm | - | - | - |
| 1788525508 | 21.67° C | 64% | 1012.9 hPa | 0 mm | - | - | - |
| 1788524306 | 22.22° C | 60% | 1012.8 hPa | 0 mm | - | - | - |
| 1788523706 | 22.22° C | 60% | 1012.8 hPa | 0 mm | - | - | - |
| 1788523106 | 22.22° C | 64% | 1012.1 hPa | 0 mm | - | - | - |
| 1788522507 | 22.22° C | 64% | 1012.1 hPa | 0 mm | - | - | - |
| 1788521907 | 22.22° C | 64% | 1012.1 hPa | 0 mm | - | - | - |
* Rain latest hour (hover to see other rain measurements)
** Current wind speed in m/s (hover to see current wind gust speed)